COSMOS 2567 (55978 NORAD) Tracking and Keplerian Element Data

This shows tracking and keplerian element data for the satellite.

Feedback or suggestion? Click here.




ElementValue
Catalog55978
NameCOSMOS 2567
Epoch Orbit674
Epoch Day126.5190747
Epoch Year2023
RAAN21.4639
Inclination97.6322
Eccentricity0.0010553
Argument of Perigee148.5423
Mean Anonmoly333.8925
Mean Motion15.21813674
Decay Rate4.001E-05
L11 55978U 23040A 23126.51907470 .00004001 00000+0 17919-3 0 9994
L22 55978 97.6322 21.4639 0010553 148.5423 333.8925 15.21813674 6749



Live tracking and technical data element details for COSMOS 2567 (NORAD 55978). COSMOS 2567 can be tracked NOW for your location showing map with azimuth and elevation plus other details from your city location.







IsCatalogInMostPopularTable: catalog: 55978, numindb: 57
Update: records affected: 1



GetName: 55978 COSMOS 2567

Hit Count: updated at: Tue, 06 Jun 2023 03:23:52 GMT